Probability
32 29 45 45 26 0 0 0 0 0 0 0 0 0 0 0 3 3 6 6 6 16 26 32 65 68 65 68 71 71 68 68 71 77 71 68 58 55 61 58 55 48 45 45 45 55 45 48 48
39 45 42 39 3 0 0 0 0 0 0 0 0 0 0 3 3 3 3 10 10 10 29 29 48 65 61 68 65 71 71 71 71 71 77 71 65 58 55 42 52 55 52 55 48 48 55 48 48
48 48 39 10 0 0 0 0 0 0 0 0 0 0 0 3 3 6 13 16 13 16 29 42 48 58 58 61 68 71 74 71 74 77 74 74 61 61 55 52 45 45 45 42 45 42 42 48 48
58 32 10 3 0 0 0 0 0 0 0 0 0 0 10 13 10 10 13 13 10 19 16 39 52 68 71 68 68 68 68 71 68 68 68 58 48 55 58 55 52 39 39 35 39 39 35 39 42
35 13 0 0 0 0 0 0 0 0 0 0 0 0 6 13 10 10 13 10 10 13 19 35 58 58 65 68 61 68 68 71 68 58 65 55 48 48 42 42 42 45 35 42 35 35 45 48 42
10 0 0 0 0 0 0 0 0 0 0 0 0 0 10 13 16 10 16 16 16 19 26 32 58 58 61 61 68 68 74 65 65 55 61 58 55 42 29 32 29 32 32 32 39 39 42 48 42
6 0 0 0 0 0 0 0 0 0 0 0 0 0 3 10 10 16 23 19 23 19 26 19 19 52 61 61 65 71 74 74 68 68 58 61 52 45 32 35 32 35 45 39 35 39 32 32 32
0 0 0 0 0 0 0 0 0 0 3 0 0 0 0 10 6 10 13 16 13 16 32 29 39 39 35 39 61 71 74 74 71 65 58 48 48 45 23 32 52 45 45 32 29 35 32 29 26
0 0 0 0 0 0 0 0 0 0 0 0 0 0 3 6 3 6 10 6 10 19 29 26 26 29 29 29 42 52 68 58 71 71 55 55 52 35 29 16 45 26 26 29 42 35 35 32 32
0 0 0 0 0 0 0 0 0 0 0 0 3 6 3 3 6 6 6 6 13 13 23 23 23 23 26 23 48 55 35 61 68 71 65 71 71 52 26 26 42 39 29 32 35 39 29 23 26
0 0 0 0 0 0 0 0 0 0 0 0 0 3 6 6 6 3 6 6 10 16 23 35 32 42 39 42 39 52 48 58 52 65 65 74 48 48 39 45 42 52 29 32 29 23 23 13 13
0 0 0 0 0 0 0 0 0 0 0 0 0 3 10 10 6 10 6 6 13 23 23 26 32 55 52 55 45 55 42 45 48 68 58 48 52 52 45 55 45 45 58 58 32 35 26 19 10
0 0 0 0 0 0 0 0 0 0 0 0 3 3 10 6 6 6 10 13 10 23 19 35 52 52 58 65 45 32 48 32 55 65 52 55 45 45 48 61 55 42 35 35 45 32 32 26 16
3 3 0 0 0 0 0 0 0 0 0 0 3 3 6 10 6 13 13 10 10 19 23 32 42 55 65 61 65 58 42 68 52 52 58 58 42 48 45 48 48 35 35 39 42 39 35 23 19
3 3 3 0 0 0 0 0 0 0 0 3 3 3 3 10 10 13 16 19 19 23 32 52 48 52 61 61 55 45 45 48 52 61 68 58 48 61 55 48 42 35 39 52 45 45 39 26 19
0 0 0 0 0 0 0 0 0 0 0 3 3 3 3 10 13 13 16 23 23 26 48 48 29 48 68 74 77 55 68 65 58 65 65 65 61 61 68 52 48 52 35 42 45 39 35 39 32
0 0 0 0 0 0 0 0 0 0 0 3 3 3 3 10 10 16 16 16 19 39 55 58 55 58 65 74 81 71 77 71 61 61 71 68 65 52 52 58 58 48 39 42 29 45 42 42 35
0 0 0 0 0 0 0 0 0 0 0 0 6 3 6 16 13 16 19 16 26 39 48 65 71 74 74 74 74 77 71 74 65 68 68 61 61 52 45 55 65 39 35 52 52 55 55 45 35
0 0 0 0 0 0 0 0 0 0 0 0 10 6 6 10 16 19 32 29 29 39 61 68 74 77 74 74 77 74 65 65 58 61 61 61 52 55 52 48 61 48 45 58 42 52 45 42 35
0 0 0 0 0 0 0 0 0 3 3 3 13 13 13 13 19 29 32 35 39 61 71 71 77 74 77 84 81 74 74 58 55 61 71 61 58 55 52 55 58 58 68 65 58 65 45 42 39
0 0 0 0 0 0 0 0 0 0 0 3 10 10 10 16 19 26 39 42 45 55 71 58 77 77 77 77 74 77 71 71 55 55 65 61 55 55 58 52 58 61 58 58 65 61 58 52 45
0 0 0 0 0 0 0 0 3 0 3 6 10 16 13 16 23 32 35 45 48 55 61 74 77 77 74 74 74 77 71 68 65 68 55 61 58 58 55 58 58 58 55 61 48 52 55 55 45
0 0 0 0 0 0 0 0 0 0 6 13 19 23 16 19 29 26 32 45 42 45 52 71 77 77 77 77 74 74 68 68 58 65 71 68 65 61 48 55 65 61 55 58 55 52 61 45 48
0 0 0 0 0 0 0 0 0 3 0 13 13 23 26 19 26 26 35 35 39 42 55 61 77 77 81 81 74 77 71 74 71 68 58 48 45 45 39 45 61 52 52 52 58 65 58 58 61
0 0 0 0 0 0 0 0 0 3 3 3 10 19 19 23 29 29 32 35 39 45 52 65 77 81 77 81 77 74 74 71 71 61 52 48 42 39 48 45 58 48 52 52 55 58 58 48 55
0 0 0 0 0 0 0 0 0 3 10 10 19 23 19 29 39 32 32 39 42 42 65 74 77 81 81 74 71 68 68 58 58 61 48 48 45 42 48 52 52 48 45 45 55 52 55 58 58
0 0 0 0 0 0 0 0 0 10 13 19 23 16 26 26 32 35 45 42 45 48 68 74 77 81 77 68 68 68 68 68 61 65 55 45 48 39 45 45 45 52 48 48 55 52 52 52 48
0 0 0 0 0 0 0 0 3 13 16 23 29 23 19 32 39 35 45 52 52 58 61 74 74 77 77 71 71 61 71 68 65 65 58 48 45 45 45 45 45 48 48 48 55 55 55 55 52
0 0 0 0 0 0 0 0 3 13 19 23 23 29 26 35 42 45 52 52 58 58 55 71 68 65 61 65 68 68 65 65 68 61 52 48 48 45 45 48 48 48 52 48 48 48 52 52 48
0 0 0 0 0 0 0 3 6 13 19 19 26 26 19 39 55 55 52 52 55 55 55 61 65 61 61 61 65 65 65 65 61 58 48 48 48 45 48 48 45 48 42 45 48 45 42 52 45
Height
5885 5884 5884 5884 5884 5884 5882 5881 5880 5878 5877 5876 5875 5874 5874 5874 5875 5876 5873 5871 5872 5872 5872 5873 5873 5873 5874 5874 5874 5874 5874 5874 5874 5874 5874 5874 5875 5875 5876 5876 5876 5877 5877 5878 5878 5879 5879 5879 5880
5888 5887 5887 5887 5887 5887 5885 5883 5881 5880 5879 5877 5876 5876 5875 5875 5875 5874 5873 5873 5874 5874 5874 5874 5874 5874 5875 5875 5875 5875 5876 5876 5876 5876 5876 5876 5876 5877 5877 5878 5878 5878 5878 5879 5879 5880 5881 5881 5882
5890 5890 5891 5890 5889 5889 5887 5885 5883 5882 5880 5879 5878 5878 5877 5877 5876 5875 5875 5875 5875 5875 5876 5876 5876 5876 5876 5876 5876 5876 5877 5877 5877 5877 5878 5878 5878 5878 5879 5879 5879 5879 5879 5880 5881 5882 5882 5883 5883
5893 5894 5894 5893 5892 5890 5889 5887 5885 5883 5882 5881 5880 5880 5879 5878 5878 5877 5877 5877 5877 5877 5877 5877 5877 5877 5877 5877 5877 5878 5878 5878 5878 5879 5879 5879 5879 5880 5880 5880 5880 5880 5881 5882 5883 5883 5883 5884 5885
5897 5897 5897 5896 5894 5893 5891 5889 5887 5885 5884 5883 5882 5882 5881 5880 5879 5879 5879 5879 5879 5879 5879 5879 5879 5879 5879 5879 5879 5879 5879 5880 5880 5880 5881 5881 5881 5881 5881 5881 5882 5882 5882 5883 5884 5884 5885 5885 5886
5901 5901 5901 5899 5897 5895 5893 5891 5889 5888 5887 5886 5885 5884 5883 5882 5882 5881 5881 5881 5881 5881 5881 5881 5881 5881 5881 5881 5880 5880 5881 5881 5881 5882 5882 5882 5882 5883 5883 5883 5883 5884 5884 5885 5885 5885 5886 5886 5887
5904 5904 5903 5902 5900 5898 5896 5894 5892 5891 5890 5888 5887 5887 5885 5884 5884 5884 5883 5883 5883 5883 5883 5883 5883 5883 5883 5882 5882 5882 5882 5882 5883 5883 5884 5884 5884 5884 5884 5885 5885 5885 5886 5886 5887 5887 5887 5887 5888
5907 5908 5906 5904 5902 5901 5899 5897 5895 5894 5892 5891 5890 5889 5888 5887 5886 5886 5886 5886 5886 5885 5885 5885 5885 5885 5884 5884 5884 5883 5883 5883 5884 5884 5885 5885 5885 5885 5886 5886 5886 5886 5887 5887 5888 5888 5888 5889 5889
5909 5912 5909 5907 5905 5904 5902 5900 5899 5897 5895 5894 5893 5892 5891 5890 5889 5889 5888 5888 5888 5888 5887 5887 5887 5886 5886 5886 5885 5885 5885 5885 5885 5885 5886 5886 5887 5887 5887 5887 5887 5888 5888 5888 5888 5889 5889 5889 5890
5914 5913 5911 5910 5908 5906 5905 5903 5902 5900 5899 5897 5896 5895 5894 5893 5892 5892 5891 5891 5890 5890 5889 5889 5889 5889 5888 5888 5887 5887 5887 5887 5887 5887 5887 5888 5888 5888 5888 5888 5888 5889 5889 5889 5889 5889 5890 5890 5890
5916 5915 5913 5912 5910 5909 5907 5906 5905 5904 5903 5901 5900 5899 5897 5896 5895 5895 5894 5893 5893 5892 5892 5891 5891 5891 5890 5890 5889 5889 5889 5889 5889 5889 5889 5889 5890 5890 5890 5889 5889 5889 5889 5889 5890 5890 5890 5891 5890
5918 5917 5916 5915 5913 5912 5911 5910 5908 5907 5906 5905 5903 5902 5901 5900 5899 5898 5897 5896 5896 5895 5894 5894 5893 5893 5892 5892 5892 5891 5891 5891 5891 5891 5890 5891 5891 5891 5891 5891 5891 5891 5891 5891 5891 5891 5891 5891 5891
5920 5919 5918 5917 5916 5915 5914 5913 5912 5910 5909 5908 5907 5905 5904 5903 5902 5901 5900 5899 5898 5897 5897 5896 5896 5895 5895 5894 5894 5893 5893 5893 5893 5893 5892 5892 5893 5893 5892 5892 5892 5892 5892 5892 5892 5892 5892 5892 5892
5922 5921 5921 5920 5919 5918 5917 5916 5915 5914 5912 5911 5910 5909 5907 5906 5905 5904 5903 5902 5901 5900 5899 5899 5898 5898 5897 5896 5896 5896 5895 5895 5895 5894 5894 5894 5894 5894 5894 5894 5894 5893 5893 5893 5893 5893 5892 5892 5892
5924 5924 5924 5923 5922 5921 5920 5919 5918 5917 5916 5914 5913 5912 5911 5910 5909 5908 5906 5905 5904 5903 5902 5901 5900 5900 5899 5899 5898 5898 5897 5897 5896 5896 5896 5895 5895 5895 5895 5895 5895 5894 5894 5894 5893 5893 5893 5893 5892
5926 5927 5927 5926 5925 5924 5924 5924 5922 5920 5919 5918 5916 5915 5914 5913 5912 5911 5909 5908 5907 5906 5905 5904 5903 5902 5901 5901 5900 5900 5899 5899 5898 5897 5897 5897 5896 5896 5896 5896 5895 5895 5895 5894 5894 5894 5893 5893 5892
5928 5930 5929 5928 5927 5926 5926 5926 5925 5923 5922 5920 5919 5918 5917 5916 5915 5914 5912 5911 5910 5909 5907 5906 5905 5904 5903 5902 5902 5901 5901 5900 5900 5899 5899 5898 5898 5897 5897 5896 5896 5896 5895 5895 5894 5894 5893 5893 5892
5931 5931 5931 5930 5929 5928 5928 5928 5927 5925 5924 5923 5922 5921 5920 5919 5917 5916 5915 5914 5912 5911 5910 5909 5907 5906 5905 5904 5903 5903 5902 5902 5901 5900 5900 5899 5898 5898 5897 5897 5896 5896 5896 5895 5894 5894 5893 5892 5892
5930 5931 5932 5931 5931 5930 5930 5929 5929 5927 5926 5925 5924 5923 5922 5921 5919 5918 5917 5916 5915 5913 5912 5911 5910 5909 5908 5906 5906 5905 5904 5903 5902 5902 5901 5900 5899 5899 5898 5897 5897 5896 5896 5895 5894 5894 5893 5892 5891
5929 5931 5932 5932 5931 5931 5931 5931 5930 5929 5928 5927 5926 5925 5924 5922 5921 5920 5919 5918 5916 5915 5914 5913 5912 5911 5909 5908 5907 5906 5905 5904 5904 5903 5902 5901 5900 5899 5898 5897 5897 5896 5895 5895 5894 5893 5892 5892 5891
5929 5930 5931 5931 5932 5932 5932 5932 5931 5930 5929 5928 5927 5926 5925 5924 5923 5921 5920 5919 5918 5917 5916 5915 5914 5912 5911 5910 5909 5908 5907 5906 5904 5903 5902 5901 5900 5899 5898 5898 5897 5896 5895 5894 5894 5893 5892 5891 5890
5928 5929 5930 5931 5931 5932 5933 5934 5933 5931 5930 5929 5928 5927 5926 5925 5924 5922 5921 5920 5919 5918 5917 5916 5915 5914 5913 5911 5910 5909 5908 5906 5905 5904 5903 5901 5900 5899 5898 5897 5896 5896 5895 5894 5893 5892 5891 5890 5889
5926 5927 5928 5929 5931 5932 5932 5934 5934 5931 5931 5930 5929 5928 5927 5926 5924 5923 5922 5921 5920 5919 5918 5916 5916 5915 5913 5912 5911 5910 5908 5907 5906 5904 5903 5901 5900 5899 5898 5897 5896 5895 5894 5893 5892 5891 5890 5889 5888
5923 5925 5927 5928 5930 5932 5932 5933 5933 5931 5930 5930 5929 5928 5927 5926 5925 5924 5922 5921 5920 5919 5918 5917 5916 5915 5914 5913 5912 5910 5909 5908 5906 5905 5903 5902 5900 5899 5898 5896 5895 5894 5893 5892 5891 5890 5889 5888 5887
5921 5924 5926 5928 5929 5930 5930 5930 5932 5930 5930 5929 5929 5928 5927 5926 5926 5924 5923 5921 5920 5919 5918 5917 5916 5915 5914 5913 5912 5911 5909 5908 5906 5905 5903 5902 5900 5898 5897 5896 5894 5893 5892 5891 5890 5889 5888 5887 5885
5918 5921 5925 5927 5929 5929 5927 5928 5930 5929 5928 5928 5928 5927 5927 5926 5925 5924 5923 5922 5920 5919 5918 5917 5916 5915 5914 5913 5912 5911 5909 5908 5906 5904 5903 5901 5899 5898 5896 5895 5893 5892 5891 5889 5888 5887 5886 5885 5884
5914 5917 5921 5923 5924 5926 5926 5926 5926 5926 5926 5926 5926 5926 5926 5925 5924 5924 5923 5921 5920 5919 5918 5917 5916 5915 5914 5913 5911 5910 5909 5907 5906 5904 5902 5900 5899 5897 5896 5894 5892 5891 5889 5888 5887 5885 5884 5883 5882
5910 5913 5916 5919 5920 5923 5924 5923 5924 5923 5924 5924 5924 5924 5924 5924 5923 5922 5922 5921 5920 5919 5917 5916 5915 5914 5913 5912 5911 5909 5908 5906 5905 5903 5902 5900 5898 5896 5894 5893 5891 5889 5888 5886 5885 5883 5882 5881 5879
5906 5908 5911 5914 5916 5920 5922 5924 5921 5921 5921 5921 5922 5922 5922 5922 5921 5921 5920 5919 5919 5917 5916 5915 5914 5913 5912 5911 5910 5909 5907 5906 5904 5902 5901 5899 5897 5895 5893 5892 5890 5888 5886 5885 5883 5881 5880 5878 5877
5900 5903 5906 5909 5910 5913 5917 5921 5916 5917 5918 5918 5919 5919 5919 5920 5919 5919 5918 5918 5917 5916 5915 5914 5913 5911 5910 5909 5908 5907 5905 5904 5902 5900 5899 5897 5896 5894 5892 5890 5888 5886 5884 5883 5881 5879 5878 5876 5875
Wind_Speed
18 18 17 17 18 16 15 15 16 16 15 14 13 12 11 11 11 11 11 11 11 11 10 9 10 10 9 9 10 10 11 11 11 11 11 11 10 10 10 10 10 10 10 11 11 10 9 8 8
18 17 17 17 17 14 15 16 16 16 16 15 14 12 11 11 11 11 12 11 11 11 10 10 10 10 10 10 10 10 10 11 11 11 12 12 12 11 11 10 10 11 11 11 10 10 9 8 7
18 18 17 18 16 15 16 17 18 18 17 16 15 13 12 12 12 12 12 11 11 10 10 9 10 10 10 11 11 11 11 12 12 12 12 12 11 10 10 10 9 11 11 11 11 10 9 7 7
19 19 18 17 16 17 18 18 19 18 18 17 16 15 14 13 13 13 12 12 11 10 9 8 9 10 10 11 11 11 12 12 11 12 12 11 10 10 10 10 10 10 11 11 10 9 8 7 7
19 19 18 16 16 18 18 19 19 19 19 18 17 16 15 15 13 13 13 12 12 11 10 10 10 10 11 11 12 11 11 11 11 11 11 11 10 10 10 10 9 10 10 10 9 8 7 7 6
18 18 16 16 17 18 18 19 20 20 19 19 17 16 16 15 14 13 13 12 12 12 11 11 11 10 10 10 11 10 10 10 10 10 10 10 10 10 9 9 9 9 10 9 8 8 7 6 6
18 17 16 17 17 18 18 19 19 19 19 19 17 16 16 15 14 13 13 13 13 12 11 11 11 10 10 10 10 10 10 10 10 10 10 10 10 10 9 9 9 9 9 8 8 7 6 5 5
17 17 16 17 17 18 19 19 19 20 19 19 18 17 16 16 15 14 14 13 13 12 11 10 10 10 10 10 9 10 10 11 10 10 10 10 9 9 9 8 9 9 8 7 7 7 6 5 5
17 16 16 17 18 18 19 20 20 20 19 19 18 18 17 16 16 15 14 13 12 12 11 10 10 10 10 10 10 10 10 10 11 11 10 10 9 8 8 8 8 7 7 7 7 6 5 4 4
16 15 16 17 18 19 19 20 20 20 19 19 18 18 17 17 16 15 14 13 13 12 11 11 11 11 10 10 10 10 10 11 11 10 10 9 8 8 7 8 7 7 7 7 6 5 4 4 4
15 15 16 17 18 19 20 20 20 20 20 19 18 18 17 16 16 16 14 13 13 12 11 11 11 11 10 10 11 10 11 11 10 10 9 8 8 8 7 7 6 6 6 6 6 5 5 4 4
14 14 15 17 18 19 19 19 20 20 20 19 19 18 17 16 16 16 14 13 13 12 12 12 11 11 11 11 11 10 10 10 10 9 8 8 7 7 7 7 7 6 6 5 4 5 5 4 3
12 13 14 16 17 18 18 19 19 19 19 19 18 18 18 17 16 15 14 14 13 13 12 12 12 11 11 11 10 10 10 9 9 8 8 8 7 7 7 7 6 6 5 4 3 4 4 3 2
10 12 13 15 16 17 17 17 18 18 18 18 17 17 17 17 16 15 14 14 14 13 13 12 11 11 11 11 11 10 9 9 8 8 8 8 7 6 5 6 5 5 5 4 3 3 3 2 1
10 11 12 13 15 15 16 16 16 17 17 17 17 16 16 16 16 16 15 14 14 14 13 12 11 11 11 11 11 10 9 8 7 7 7 7 6 6 5 5 4 4 3 3 3 3 2 1 1
9 10 10 11 13 13 15 15 14 15 15 16 15 15 15 15 15 15 14 14 13 13 13 12 11 11 10 10 10 10 9 8 8 7 7 7 7 6 5 4 3 3 2 2 2 2 2 1 1
6 7 8 9 11 12 13 13 13 13 14 14 14 14 13 13 13 13 13 13 12 12 12 11 11 11 10 9 9 9 8 8 7 7 7 7 7 6 6 4 3 3 2 2 2 2 2 2 2
5 5 6 7 8 9 11 11 11 11 12 12 12 12 12 12 12 12 12 12 11 12 11 11 11 10 10 9 9 8 8 7 7 6 6 6 6 6 6 5 4 3 3 3 2 2 2 2 3
6 5 4 4 5 6 7 8 8 9 9 10 10 10 10 10 10 11 11 11 10 11 10 10 10 10 9 9 8 8 7 7 7 6 6 6 5 5 6 5 4 4 4 4 3 3 3 3 4
6 5 3 2 3 4 5 5 5 6 7 8 8 9 8 8 9 10 10 9 9 9 9 9 9 9 9 8 8 8 7 7 6 6 5 5 5 5 5 4 4 4 4 4 4 4 4 4 5
7 6 5 3 0 1 2 3 3 4 5 6 7 7 7 7 7 8 8 8 8 8 7 7 7 8 7 7 7 7 7 7 6 6 5 5 5 5 5 5 4 5 5 5 5 5 5 6 5
9 8 6 5 2 1 0 1 2 2 3 4 5 5 5 6 6 7 7 7 6 6 6 6 6 6 6 6 6 6 6 6 6 6 5 5 5 5 5 6 6 6 6 6 6 6 7 7 6
12 10 8 7 5 3 3 2 2 2 2 3 3 4 5 5 6 6 7 7 6 6 5 6 5 5 5 5 5 5 6 6 6 6 6 5 5 6 6 6 7 7 7 7 7 7 7 7 7
13 11 9 7 6 7 6 4 3 3 3 2 3 4 4 5 6 6 6 6 6 6 5 5 5 4 4 4 5 5 6 6 6 6 6 6 6 6 6 6 6 7 7 7 7 7 7 7 7
14 12 9 9 9 9 8 6 6 4 3 3 3 3 4 4 5 6 6 6 6 5 5 5 5 4 4 4 4 5 6 6 6 6 6 7 7 7 7 7 6 7 7 7 7 8 8 8 8
16 14 13 11 10 9 9 9 8 5 5 4 4 4 4 4 4 5 6 5 5 5 5 5 4 4 4 4 4 5 6 6 6 7 6 7 8 8 8 7 7 7 7 7 7 8 8 8 9
18 17 15 14 12 10 11 10 9 8 8 7 6 6 6 6 5 6 6 5 5 4 5 5 5 4 4 5 5 5 6 6 7 7 7 7 8 7 7 7 7 8 7 7 8 9 9 9 9
21 19 18 16 15 13 12 11 10 10 10 9 9 8 8 7 7 7 7 6 6 6 6 6 6 5 5 5 6 7 6 6 7 7 7 8 7 7 7 7 8 8 8 9 9 9 10 10 10
22 21 20 19 19 15 14 13 13 11 11 11 11 10 10 9 9 8 8 8 7 7 7 7 7 6 6 6 6 8 8 8 8 7 7 8 7 7 7 8 8 9 9 9 10 10 11 11 11
25 24 23 22 21 19 17 16 16 13 12 12 12 11 11 11 10 9 9 9 9 9 10 9 8 8 8 7 8 8 8 9 9 9 8 8 8 8 8 8 9 9 10 10 11 12 12 12 12
Wind_Direction
72 73 74 77 76 74 76 77 76 77 79 81 84 85 87 96 103 105 105 110 110 110 108 110 113 115 116 118 117 115 113 109 105 103 106 108 112 114 113 113 111 114 124 127 128 128 127 137 142
73 73 74 76 79 78 78 79 77 76 76 77 78 77 80 91 99 100 103 107 108 107 109 112 114 116 121 120 116 113 111 110 107 104 106 106 107 111 116 116 113 116 120 124 126 126 125 127 123
75 73 73 77 80 80 79 78 77 75 74 74 74 75 81 87 91 94 100 103 106 107 110 113 116 116 117 117 113 113 112 111 109 108 108 107 107 109 111 112 116 118 120 121 122 123 124 126 122
74 74 73 77 79 80 78 77 77 74 72 72 73 74 79 84 86 92 97 100 101 103 107 110 114 116 115 115 115 116 114 112 111 111 110 109 108 108 111 109 114 118 119 123 121 122 124 128 127
74 73 72 75 77 78 76 75 74 72 72 73 72 73 76 81 85 90 94 96 98 101 102 106 107 108 110 112 114 115 115 113 111 111 110 110 110 109 109 111 112 114 117 116 119 126 127 130 131
76 73 74 75 76 77 76 75 75 74 74 73 72 74 76 80 84 89 93 94 96 100 101 103 105 103 103 108 112 114 116 114 111 112 109 110 111 115 115 116 119 118 117 113 116 120 131 135 133
78 77 77 75 75 77 77 76 76 76 74 73 74 75 76 80 84 88 91 94 95 97 99 101 100 97 99 103 105 105 109 114 111 109 109 108 110 114 118 116 117 121 119 116 115 116 121 124 131
79 75 75 74 75 76 77 76 76 77 76 73 73 75 76 80 83 87 90 92 93 92 94 96 94 94 100 101 102 102 104 110 112 111 111 109 109 112 118 118 118 121 123 119 116 117 116 113 128
77 75 77 76 76 76 76 75 75 75 75 73 73 75 78 81 83 86 87 88 90 90 92 93 92 94 98 94 93 99 96 108 111 111 115 116 115 113 118 121 117 118 121 119 119 118 115 118 127
80 80 78 77 79 77 75 74 74 73 73 74 75 76 80 82 83 84 85 85 87 88 89 93 92 91 92 90 87 90 95 101 104 106 106 107 111 111 114 116 112 112 114 119 121 119 115 112 125
83 81 78 77 79 76 75 73 74 73 72 73 75 77 79 81 83 83 83 82 84 86 87 90 91 90 91 92 89 89 93 93 94 98 102 105 108 108 102 101 104 112 116 118 115 104 111 117 126
82 83 79 76 77 76 74 73 72 72 71 72 73 75 77 78 78 78 78 79 83 85 87 88 88 87 88 90 89 90 94 94 92 95 99 102 104 106 100 96 93 100 113 108 107 110 109 115 122
85 86 83 79 77 75 74 73 72 71 70 69 71 72 74 74 74 75 75 77 79 81 84 87 87 86 87 88 89 91 92 94 94 93 93 93 94 97 100 96 93 86 93 113 115 107 105 103 108
90 88 86 83 79 76 73 72 70 68 67 67 69 69 70 70 69 70 73 75 77 78 80 84 86 84 84 86 89 90 90 91 91 92 88 89 90 95 97 86 85 82 83 84 92 92 85 79 85
96 91 88 83 80 78 76 72 67 66 65 65 67 68 69 68 66 67 70 74 75 76 77 80 84 84 83 84 84 85 86 83 81 81 81 84 81 84 87 81 82 82 85 84 70 65 61 31 1
102 95 88 85 80 79 76 72 67 66 64 63 64 65 67 67 66 67 68 71 72 73 73 75 79 81 80 80 78 77 78 77 74 71 70 72 73 73 78 80 81 77 80 75 57 40 21 358 337
106 103 100 90 81 79 76 73 67 65 63 63 62 62 64 64 65 65 67 69 69 69 71 70 73 77 76 75 73 73 73 73 72 66 61 60 63 62 62 64 64 63 51 39 30 11 350 334 332
136 123 109 95 84 78 74 68 62 61 61 61 60 59 60 62 63 63 64 64 65 66 67 66 68 70 71 73 72 70 69 70 68 65 59 56 58 56 53 55 49 41 25 14 3 349 329 309 327
163 149 131 107 87 78 72 63 56 53 55 55 55 57 60 61 62 60 58 59 58 61 63 63 65 65 67 69 70 69 67 65 63 62 59 56 53 47 40 36 37 32 23 16 360 350 341 323 320
183 175 173 142 91 76 69 59 49 45 47 51 52 54 60 61 59 58 54 55 54 53 56 60 61 61 61 63 65 65 63 59 54 50 49 48 40 35 28 18 19 27 22 13 356 346 344 335 321
196 199 202 209 149 65 50 38 32 40 42 47 46 46 53 62 58 54 47 45 47 47 52 57 59 59 57 56 58 57 55 51 44 39 37 34 30 22 16 17 9 3 2 357 353 344 339 338 327
210 213 216 227 231 270 170 341 336 8 24 33 38 35 43 57 58 50 42 36 38 38 42 48 52 55 54 52 51 48 43 36 31 28 24 19 14 9 3 1 356 349 346 346 344 345 339 332 328
221 226 227 232 235 244 246 213 299 330 354 13 30 29 29 37 39 36 36 32 28 28 34 38 38 43 46 45 42 35 28 22 21 18 14 9 6 359 352 349 346 343 343 343 342 342 339 336 333
225 227 230 234 234 241 240 224 260 284 311 327 345 358 5 14 18 20 24 24 21 25 29 28 24 30 34 33 31 26 20 16 12 11 11 9 5 358 347 338 334 333 334 333 332 331 334 334 330
227 225 234 240 242 245 247 240 242 252 280 294 307 328 343 351 0 2 5 8 9 12 14 19 17 24 23 21 19 18 15 13 10 8 8 7 1 358 354 348 344 337 329 322 320 323 327 329 329
230 226 225 229 239 252 254 246 244 247 264 276 286 294 306 325 331 340 349 359 3 1 359 4 8 2 3 1 358 3 6 3 2 360 359 356 355 354 354 350 350 348 336 326 326 330 329 326 324
232 230 230 234 236 237 250 254 250 251 258 264 270 276 283 297 305 315 327 337 342 342 339 337 343 341 340 345 345 346 350 355 353 351 351 350 349 348 348 341 342 347 346 339 334 334 332 328 326
233 233 234 233 235 241 252 255 255 254 256 260 263 268 273 282 291 297 302 310 314 318 318 318 325 325 325 325 332 336 340 342 347 348 347 346 343 341 341 343 345 342 341 338 336 334 331 328 326
235 234 234 237 238 239 250 257 257 256 256 257 261 267 270 275 283 287 289 294 295 299 304 305 302 306 310 319 325 331 331 329 333 335 336 339 337 335 333 337 337 335 335 335 333 331 328 326 324
235 237 238 239 244 244 246 257 258 254 255 257 259 265 268 271 276 279 282 284 285 290 293 298 300 303 305 308 314 313 314 319 324 322 323 327 331 333 329 328 329 330 330 329 326 324 323 322 322